Location: Unspecified
(0.0000°N, 0.0000°E)
Time: 21:29:18
(UTC+00:00)

CHUBUSAT 2 - Visible Passes

Search period start: 21 October 2017 00:00
Search period end: 31 October 2017 00:00
Orbit: 558 x 577 km, 31.0° (Epoch: 21 October)

Date Brightness Start Highest point End Pass type
(mag) Time Alt. Az. Time Alt. Az. Time Alt. Az.
27 Oct ? 18:56:56 10° SSE 18:58:07 11° SSE 18:58:35 11° SE visible
28 Oct ? 18:54:25 10° SSW 18:57:19 18° SSE 18:57:57 17° SE visible
29 Oct ? 18:52:46 10° SSW 18:56:28 28° SSE 18:57:22 26° SE visible
30 Oct ? 18:51:28 10° SW 18:55:35 48° SSE 18:56:49 36° E visible
